TimeAEST,TemperatureF,Dew PointF,Humidity,Sea Level PressureIn,VisibilityMPH,Wind Direction,Wind SpeedMPH,Gust SpeedMPH,PrecipitationIn,Events,Conditions,WindDirDegrees,DateUTC
12:00 AM,76,69,72,29.88,,NNE,4.6,,,,,30,2012-11-16 14:00:00
12:00 AM,77.0,68.0,74,29.86,6.2,NNE,4.6,-,N/A,,Scattered Clouds,30,2012-11-16 14:00:00
12:30 AM,75.2,68.0,78,29.86,6.2,North,3.5,-,N/A,,Partly Cloudy,360,2012-11-16 14:30:00
1:00 AM,76,69,74,29.85,,West,5.8,,,,,270,2012-11-16 15:00:00
1:00 AM,75.2,69.8,83,29.83,6.2,West,5.8,-,N/A,,Partly Cloudy,270,2012-11-16 15:00:00
1:30 AM,75.2,69.8,83,29.83,6.2,WNW,1.2,-,N/A,,Partly Cloudy,290,2012-11-16 15:30:00
2:00 AM,73.4,69.8,88,29.83,6.2,Calm,Calm,-,N/A,,Partly Cloudy,0,2012-11-16 16:00:00
2:30 AM,73.4,69.8,88,29.83,6.2,Calm,Calm,-,N/A,,Scattered Clouds,0,2012-11-16 16:30:00
3:00 AM,73,70,87,29.83,,Calm,Calm,,,,,,2012-11-16 17:00:00
3:00 AM,73.4,69.8,88,29.83,6.2,Calm,Calm,-,N/A,,Partly Cloudy,0,2012-11-16 17:00:00
3:30 AM,71.6,69.8,94,29.83,6.2,Calm,Calm,-,N/A,,Partly Cloudy,0,2012-11-16 17:30:00
4:00 AM,71,69,92,29.84,,Calm,Calm,,,,,,2012-11-16 18:00:00
4:00 AM,71.6,69.8,94,29.83,6.2,Calm,Calm,-,N/A,,Partly Cloudy,0,2012-11-16 18:00:00
4:30 AM,69.8,69.8,100,29.83,6.2,Calm,Calm,-,N/A,,Partly Cloudy,0,2012-11-16 18:30:00
5:00 AM,71.6,69.8,94,29.83,6.2,Calm,Calm,-,N/A,,Partly Cloudy,0,2012-11-16 19:00:00
5:30 AM,71.6,69.8,94,29.83,6.2,West,1.2,-,N/A,,Partly Cloudy,270,2012-11-16 19:30:00
6:00 AM,70,69,94,29.86,19,Calm,Calm,,,,Partly Cloudy,,2012-11-16 20:00:00
6:00 AM,69.8,68.0,94,29.86,6.2,Calm,Calm,-,N/A,,Partly Cloudy,0,2012-11-16 20:00:00
6:30 AM,73.4,69.8,88,29.86,6.2,SSE,3.5,-,N/A,,Partly Cloudy,160,2012-11-16 20:30:00
7:00 AM,76,71,78,29.88,,Calm,Calm,,,,,,2012-11-16 21:00:00
7:00 AM,75.2,69.8,83,29.86,6.2,Calm,Calm,-,N/A,,Partly Cloudy,0,2012-11-16 21:00:00
7:30 AM,78.8,69.8,74,29.86,6.2,SE,5.8,-,N/A,,Partly Cloudy,130,2012-11-16 21:30:00
8:00 AM,80.6,69.8,70,29.86,6.2,ESE,4.6,-,N/A,,Partly Cloudy,110,2012-11-16 22:00:00
8:30 AM,82.4,69.8,66,29.89,6.2,ENE,4.6,-,N/A,,Partly Cloudy,70,2012-11-16 22:30:00
9:00 AM,83,69,54,29.89,19,NNE,8.1,,,,Partly Cloudy,20,2012-11-16 23:00:00
9:00 AM,82.4,69.8,66,29.89,6.2,NNE,8.1,-,N/A,,Mostly Cloudy,20,2012-11-16 23:00:00
9:30 AM,82.4,68.0,62,29.89,6.2,NNE,9.2,-,N/A,,Partly Cloudy,20,2012-11-16 23:30:00
10:00 AM,82,69,57,29.88,,NNE,10.4,,,,,30,2012-11-17 00:00:00
10:00 AM,82.4,69.8,66,29.86,6.2,NNE,10.4,-,N/A,,Partly Cloudy,30,2012-11-17 00:00:00
10:30 AM,84.2,69.8,62,29.86,6.2,North,10.4,-,N/A,,Partly Cloudy,10,2012-11-17 00:30:00
11:00 AM,82.4,68.0,62,29.86,6.2,NNE,10.4,-,N/A,,Partly Cloudy,30,2012-11-17 01:00:00
11:30 AM,82.4,69.8,66,29.83,6.2,NNE,10.4,-,N/A,,Partly Cloudy,30,2012-11-17 01:30:00
12:00 PM,83,69,53,29.83,19,NNE,10.4,,,,Partly Cloudy,30,2012-11-17 02:00:00
12:00 PM,82.4,68.0,62,29.83,6.2,NNE,10.4,-,N/A,,Mostly Cloudy,30,2012-11-17 02:00:00
12:30 PM,86.0,69.8,58,29.83,6.2,NNE,10.4,-,N/A,,Mostly Cloudy,20,2012-11-17 02:30:00
1:00 PM,84,69,52,29.82,,NNE,10.4,,,,,30,2012-11-17 03:00:00
1:00 PM,84.2,69.8,62,29.80,6.2,NNE,10.4,-,N/A,,Scattered Clouds,30,2012-11-17 03:00:00
1:30 PM,82.4,68.0,62,29.80,6.2,NNE,10.4,-,N/A,,Scattered Clouds,20,2012-11-17 03:30:00
2:00 PM,86.0,69.8,58,29.80,6.2,NNE,9.2,-,N/A,,Scattered Clouds,20,2012-11-17 04:00:00
2:30 PM,84.2,69.8,62,29.77,6.2,NNE,10.4,-,N/A,,Partly Cloudy,30,2012-11-17 04:30:00
3:00 PM,84,69,52,29.79,19,NNE,10.4,,,,Partly Cloudy,20,2012-11-17 05:00:00
3:00 PM,84.2,69.8,62,29.77,6.2,NNE,10.4,-,N/A,,Partly Cloudy,20,2012-11-17 05:00:00
3:30 PM,82.4,69.8,66,29.77,6.2,NNE,9.2,-,N/A,,Partly Cloudy,30,2012-11-17 05:30:00
4:00 PM,82,70,59,29.79,,NNE,9.2,,,,,30,2012-11-17 06:00:00
4:00 PM,82.4,69.8,66,29.77,6.2,NNE,9.2,-,N/A,,Partly Cloudy,30,2012-11-17 06:00:00
4:30 PM,80.6,69.8,70,29.77,6.2,North,8.1,-,N/A,,Partly Cloudy,10,2012-11-17 06:30:00
5:00 PM,80.6,69.8,70,29.77,6.2,North,8.1,-,N/A,,Scattered Clouds,10,2012-11-17 07:00:00
5:30 PM,80.6,69.8,70,29.77,6.2,North,8.1,-,N/A,,Partly Cloudy,10,2012-11-17 07:30:00
6:00 PM,80,69,61,29.78,,NNE,6.9,,,,,20,2012-11-17 08:00:00
6:00 PM,78.8,69.8,74,29.77,6.2,NNE,6.9,-,N/A,,Partly Cloudy,20,2012-11-17 08:00:00
7:00 PM,78,69,68,29.80,,North,5.8,,,,,0,2012-11-17 09:00:00
7:00 PM,78.8,69.8,74,29.77,6.2,North,5.8,-,N/A,,Scattered Clouds,360,2012-11-17 09:00:00
7:30 PM,77.0,69.8,78,29.80,6.2,North,5.8,-,N/A,,Partly Cloudy,360,2012-11-17 09:30:00
8:00 PM,77.0,69.8,78,29.80,6.2,North,3.5,-,N/A,,Partly Cloudy,350,2012-11-17 10:00:00
8:30 PM,77.0,69.8,78,29.80,6.2,Calm,Calm,-,N/A,,Partly Cloudy,0,2012-11-17 10:30:00
9:00 PM,76,70,78,29.83,,North,1.2,,,,,350,2012-11-17 11:00:00
9:00 PM,77.0,69.8,78,29.83,6.2,North,1.2,-,N/A,,Partly Cloudy,350,2012-11-17 11:00:00
9:30 PM,77.0,69.8,78,29.83,6.2,WNW,3.5,-,N/A,,Partly Cloudy,300,2012-11-17 11:30:00
10:00 PM,76,71,78,29.85,,Calm,Calm,,,,,,2012-11-17 12:00:00
10:00 PM,77.0,69.8,78,29.83,6.2,Calm,Calm,-,N/A,,Partly Cloudy,0,2012-11-17 12:00:00
10:30 PM,77.0,71.6,83,29.83,6.2,Calm,Calm,-,N/A,,Scattered Clouds,0,2012-11-17 12:30:00
11:00 PM,77.0,69.8,78,29.83,6.2,Calm,Calm,-,N/A,,Unknown,0,2012-11-17 13:00:00
11:30 PM,77.0,71.6,83,29.83,6.2,WNW,2.3,-,N/A,,Mostly Cloudy,300,2012-11-17 13:30:00